Regional Weather Roundup
Issued by NWS

Home | Current Version | Previous Version | Graphics & Text | Print | Product List | Glossary On
Versions: 1 2 3 4 5 6 7 8 9 10 11 12 13 14 15 16 17 18 19 20 21 22 23 24 25 26 27 28 29 30 31 32 33 34 35 36 37 38 39 40 41 42 43 44 45 46 47 48 49 50
000
ASUS45 KCYS 011610
RWRWY

WYOMING REGIONAL WEATHER ROUNDUP
NATIONAL WEATHER SERVICE CHEYENNE WY
900 AM MST SUN MAR 01 2015

NOTE:  "FAIR" INDICATES FEW OR NO CLOUDS BELOW 12,000 FEET
WITH NO SIGNIFICANT WEATHER AND/OR OBSTRUCTIONS TO VISIBILITY.

WYZ001-011700-
YELLOWSTONE NATIONAL PARK

CITY           SKY/WX    TMP DP  RH WIND       PRES   REMARKS
LK YELLOWSTONE   N/A     -5  -8  87 SE3       30.13R
W YELLOWSTONE  NOT AVBL

$$
WYZ002>013-054>058-071-098>099-011700-
NORTHERN WYOMING

CITY           SKY/WX    TMP DP  RH WIND       PRES   REMARKS
JACKSON        SUNNY      0  -4  85 N3        30.17R
CODY           FAIR      14  10  85 CALM      30.23R
GREYBULL       FAIR      18   9  68 CALM      30.31R
WORLAND        FAIR      19   9  65 NE3       30.29R
SHERIDAN       FAIR      17   5  59 VRB3      30.27R
BUFFALO        FAIR      15   3  59 NW8       30.22R WCI   4
GILLETTE       FAIR      17   8  67 W13       30.24R WCI   4
HULETT         FAIR      18  10  73 W10       30.24R WCI   6
NEWCASTLE      FAIR      18  10  73 NW12      30.25R WCI   5

$$
WYZ014>020-022>026-101>103-011700-
CENTRAL WYOMING

CITY           SKY/WX    TMP DP  RH WIND       PRES   REMARKS
BIG PINEY      CLOUDY    14   9  80 S3        30.13R
PINEDALE       PTSUNNY   14   7  73 CALM      30.13S
DUBOIS         FLURRIES   5  -2  72 CALM      30.11R
LANDER         CLOUDY    17   8  67 SW7       30.20R WCI   8
RIVERTON       CLOUDY    18  12  77 CALM      30.22R
CASPER         FAIR      20  10  65 VRB3      30.21R
DOUGLAS        FAIR      20  12  71 N10       30.23R WCI   9

$$
WYZ021-027>030-104>119-011700-
SOUTHERN WYOMING

CITY           SKY/WX    TMP DP  RH WIND       PRES   REMARKS
EVANSTON       FAIR      18  14  84 E14       30.07R WCI   4
FORT BRIDGER   CLOUDY    15  14  92 NE8       30.13R WCI   5
ROCK SPRINGS   FAIR      13   6  74 E8        30.14R WCI   2
DIXON          FLURRIES  19  14  82 CALM      30.16R
RAWLINS        CLOUDY    13   8  81 S3        30.15R
SARATOGA       CLOUDY    14  10  85 N3        30.13R
LARAMIE        PTSUNNY    9   6  88 CALM      30.10R
CHEYENNE       CLOUDY    14  10  84 N8        30.15R FOG     WCI   3
TORRINGTON     CLOUDY    20  12  71 W8        30.26R WCI  10
PINE BLUFFS    FAIR      19  16  86 N6        30.22R WCI  11

$$


USA.gov is the U.S. government's official web portal to all federal, state and local government web resources and services.